Theta_e
281 280 279 279 278 277 277 277 276 276 276 276 276 276 276 276 276 276 276 275 275 275 275 276 276 276 276 276 276 277 277 277 277 277 277 277 277 277 277 277 278 278
280 279 279 278 278 277 277 276 275 275 275 275 275 275 275 275 275 275 275 274 275 275 275 275 275 276 276 276 276 276 276 277 277 277 276 277 276 277 277 277 277 278
280 279 278 277 277 277 277 275 275 275 275 275 275 275 274 274 274 274 274 274 274 274 274 275 275 275 275 276 276 276 276 276 276 276 276 276 276 276 276 277 277 277
280 279 278 277 277 277 276 275 275 275 275 274 275 274 274 273 273 273 273 273 273 273 274 274 274 275 275 275 275 275 276 276 276 276 276 276 276 276 276 276 276 277
279 278 277 277 277 276 275 275 275 275 274 274 274 273 273 273 272 272 272 272 272 273 273 273 274 274 274 275 275 275 275 276 276 276 276 276 276 276 276 276 276 276
278 277 277 278 277 275 275 275 275 274 274 273 273 272 272 272 272 272 272 272 272 272 273 273 273 273 274 274 275 275 275 275 275 275 275 275 275 275 275 275 276 276
277 277 278 277 276 275 275 275 275 274 273 272 272 271 271 271 271 271 271 271 272 272 272 272 272 273 273 274 274 274 274 273 273 274 274 274 275 275 275 275 275 275
277 277 277 276 275 275 275 275 274 273 272 271 271 271 270 270 271 271 271 271 271 271 271 271 272 272 272 273 273 272 272 272 272 273 273 274 274 274 274 274 274 275
277 277 276 275 275 275 275 274 273 272 271 270 270 270 270 270 270 270 270 269 269 269 270 270 270 271 271 271 271 271 271 271 271 271 272 273 273 273 273 273 274 274
277 276 275 274 275 274 273 273 272 271 270 269 269 269 269 269 269 268 268 268 268 268 268 269 269 269 269 269 269 269 269 269 270 270 270 271 272 272 272 273 273 274
276 275 274 274 274 273 272 271 270 269 269 268 268 268 268 267 267 267 267 267 267 267 267 267 267 267 267 267 267 268 268 268 269 269 269 270 270 271 271 272 272 273
274 273 273 273 273 272 271 270 269 269 268 268 267 267 266 266 265 265 265 265 265 266 266 266 266 266 266 266 266 267 267 267 268 268 268 269 269 270 270 271 272 272
273 273 273 272 272 271 270 269 268 268 267 267 266 266 265 264 264 264 264 264 264 264 265 265 265 265 265 266 266 266 267 267 267 268 268 268 269 269 270 271 271 272
273 272 272 272 271 270 269 268 268 267 267 266 266 265 264 264 264 264 263 263 264 264 264 264 265 265 265 265 266 266 267 267 268 268 268 269 269 270 270 271 271 272
272 272 271 271 271 270 269 267 266 266 266 266 265 264 264 264 263 263 263 263 264 264 264 264 265 265 265 266 267 267 268 269 269 270 270 270 270 271 271 271 272 272
271 271 271 271 270 269 267 266 265 265 265 265 265 264 264 263 263 263 263 263 264 264 265 265 265 265 266 267 268 269 270 271 271 272 272 272 272 273 273 272 272 272
271 271 271 270 269 267 266 265 265 265 265 265 265 264 263 263 263 263 263 264 264 265 265 265 265 265 266 268 269 270 271 271 272 272 273 273 274 274 274 274 274 274
271 271 271 270 268 266 265 264 264 264 264 265 264 264 263 263 263 263 264 264 264 264 264 265 265 265 267 268 269 270 271 272 272 272 273 273 274 274 275 275 275 275
271 271 270 268 266 265 264 264 264 264 265 265 264 263 263 263 263 263 264 264 264 264 264 264 265 265 267 268 269 270 271 272 272 273 273 274 274 275 275 276 276 276
271 270 268 266 265 265 264 264 264 265 265 264 263 263 262 263 263 263 263 263 263 264 264 264 264 265 267 268 270 271 272 272 273 273 273 274 274 275 275 276 276 277
270 269 266 265 264 264 264 265 266 266 265 264 263 262 262 262 263 263 263 263 263 264 264 264 264 265 267 269 270 271 272 273 273 273 273 274 274 275 275 276 277 277
268 267 265 264 263 264 265 267 267 266 265 263 262 262 262 262 263 263 263 263 263 264 264 264 265 266 267 269 270 272 273 273 273 273 273 274 274 275 275 276 276 277
267 265 264 263 263 264 267 268 267 265 264 263 262 262 262 262 262 262 263 263 263 264 264 264 265 266 267 269 271 272 273 273 273 273 274 274 274 275 275 275 275 276
265 263 262 263 264 265 267 268 266 264 264 263 262 262 262 262 262 262 263 263 264 264 265 265 265 266 268 270 271 272 273 273 273 274 274 274 274 274 275 275 275 276
265 262 262 263 266 267 267 266 265 264 263 262 262 262 262 262 263 263 263 264 264 265 265 266 266 267 268 270 271 272 273 273 273 274 274 274 274 275 275 275 275 276
263 262 262 264 266 267 267 266 264 263 262 262 262 262 262 262 263 263 263 264 265 266 267 267 267 268 269 271 272 272 273 273 274 274 274 274 275 275 275 276 276 276
Wind_Speed
10 10 11 12 14 15 16 17 19 21 23 25 27 29 31 32 32 32 33 33 33 33 33 32 31 31 30 30 29 29 29 30 31 30 29 30 31 32 33 34 33 32
9 10 10 12 13 15 16 18 19 21 24 25 27 29 31 32 32 32 33 33 32 31 31 31 29 29 29 29 29 29 30 31 32 31 31 32 33 33 34 33 33 33
9 9 10 11 13 15 17 19 20 22 24 26 28 29 31 32 33 33 33 32 31 30 29 28 27 27 28 28 29 30 30 30 31 31 31 33 33 32 33 32 31 32
8 8 9 11 13 15 17 19 21 23 25 27 28 29 30 31 32 33 33 31 29 28 28 27 27 26 27 27 28 29 29 29 30 29 30 32 32 31 32 31 32 33
7 8 9 11 13 15 17 19 22 23 25 27 28 29 30 31 32 32 32 30 28 28 27 26 27 27 27 27 26 27 28 28 27 27 29 32 31 30 30 30 31 33
7 7 9 11 14 15 18 20 22 24 25 27 28 29 30 31 30 30 30 29 27 27 27 26 27 27 26 26 26 26 27 27 28 29 31 33 32 31 30 29 31 32
6 7 9 12 13 15 18 20 22 23 25 26 28 29 29 29 28 28 28 27 27 27 27 27 27 27 26 25 25 25 25 27 28 28 30 31 31 31 29 29 30 32
5 7 10 11 13 16 18 20 22 24 25 26 27 27 26 26 26 26 25 26 27 27 27 26 27 26 26 25 25 25 26 27 27 27 29 30 29 30 29 28 29 31
6 8 10 12 14 17 19 20 22 23 24 25 25 25 24 24 24 25 26 26 27 27 26 26 26 26 25 25 25 27 28 29 28 27 29 29 29 30 29 28 29 30
6 8 10 12 15 17 19 20 21 23 23 23 23 22 24 26 26 26 27 27 26 26 25 25 26 26 26 26 26 27 29 30 30 29 29 29 30 31 30 28 29 30
6 8 10 13 15 17 18 19 21 22 22 22 22 24 26 28 28 27 26 25 24 25 25 26 26 27 28 28 27 27 29 30 30 29 29 29 29 31 31 29 30 30
6 8 11 13 14 16 17 19 20 21 21 22 24 26 28 28 27 26 24 23 24 25 26 27 28 28 28 28 28 29 30 29 30 30 30 30 30 30 30 30 29 30
6 9 11 13 14 15 17 19 20 21 22 23 24 26 27 27 26 25 24 23 24 25 26 28 29 30 29 29 30 30 29 29 29 29 29 29 30 30 30 30 30 30
6 9 11 12 14 15 17 19 19 20 22 23 24 25 26 26 27 26 24 24 25 26 28 29 30 30 28 28 30 29 28 29 29 29 30 31 32 32 32 32 32 32
7 9 10 12 14 16 17 18 19 20 22 22 23 24 25 27 27 26 25 27 29 29 28 27 26 26 26 26 28 28 27 28 28 28 29 31 32 32 31 32 33 33
7 9 11 13 14 15 17 18 19 20 21 22 23 24 25 27 27 27 27 29 29 27 24 24 24 25 26 28 30 30 30 31 30 29 29 29 30 30 29 30 31 32
7 9 11 13 14 15 16 17 18 20 21 22 24 25 26 26 27 27 25 23 23 23 24 26 26 27 29 32 33 33 34 35 34 33 33 32 31 31 31 30 29 30
8 10 11 13 14 15 16 17 18 19 21 22 24 25 25 26 26 23 21 20 22 25 26 27 28 30 31 33 34 34 35 36 35 34 34 32 31 32 32 32 32 33
7 9 11 12 13 14 16 17 18 19 21 22 24 24 25 26 24 22 20 21 24 26 27 28 30 33 33 34 35 35 35 35 33 32 33 32 32 32 32 33 33 34
7 9 11 12 13 14 15 16 18 20 21 22 23 24 25 26 25 24 23 25 28 30 31 32 36 37 35 35 36 35 36 35 32 31 31 31 31 31 32 33 34 34
7 8 10 11 12 13 14 17 19 21 22 22 23 24 25 26 26 26 28 30 32 34 35 37 40 38 36 36 37 36 36 34 30 29 30 29 29 30 31 32 33 32
6 7 9 10 11 13 15 17 19 21 22 22 23 25 26 26 27 27 30 32 33 34 36 40 42 39 36 37 37 35 35 31 27 28 29 29 29 29 30 30 30 31
4 6 7 9 10 12 14 17 19 20 21 22 24 26 27 28 29 29 31 32 33 34 36 40 42 39 36 36 36 35 33 29 26 26 27 29 29 29 29 30 30 32
3 4 6 7 10 12 14 16 18 19 21 21 23 25 27 29 30 30 31 31 32 34 35 37 40 38 36 35 34 33 33 30 27 27 27 29 30 29 29 29 30 32
1 2 4 6 9 11 12 15 16 18 20 21 22 25 27 29 30 30 31 31 31 33 33 34 36 36 34 33 33 33 33 32 29 28 28 29 31 31 31 31 32 34
1 1 3 5 8 9 11 13 15 17 19 21 22 24 26 28 30 29 29 29 29 30 30 30 33 34 32 31 32 33 34 33 31 29 28 29 30 29 28 29 31 33
Wind_Direction
258 268 277 286 292 299 307 311 309 307 310 311 310 309 310 310 310 310 308 306 304 301 299 296 293 290 287 285 283 280 278 277 276 275 273 271 272 272 270 267 265 264
258 269 281 291 298 308 314 313 310 309 311 311 310 310 309 309 310 309 308 306 302 298 297 294 289 286 284 282 281 279 278 277 276 275 274 272 273 271 269 268 266 264
260 275 287 297 306 315 317 313 312 312 312 311 311 311 310 310 311 309 307 304 299 295 294 291 287 285 283 282 281 280 277 275 277 277 274 273 273 271 269 268 266 264
264 281 294 306 315 319 316 313 315 315 313 312 313 312 312 311 310 308 305 302 297 295 294 292 289 287 286 284 282 280 277 275 277 277 275 274 273 271 270 269 266 264
270 289 303 316 321 319 315 315 317 317 314 314 314 314 312 311 309 306 305 303 299 297 296 294 293 290 288 286 283 280 279 277 277 276 275 274 273 272 270 268 265 264
278 299 315 324 324 319 317 319 319 318 316 315 314 313 312 310 307 305 304 303 300 299 298 296 295 293 291 288 284 280 279 278 280 279 275 273 273 272 270 268 266 266
291 317 329 328 323 320 320 321 320 319 318 316 313 312 311 308 305 304 304 303 301 300 299 298 297 295 293 290 285 282 281 280 282 282 277 274 274 272 270 268 268 267
312 332 334 325 321 323 324 323 322 321 320 316 312 310 309 306 305 305 304 303 302 301 300 298 297 294 292 291 288 285 285 283 282 282 279 277 274 272 271 270 270 268
332 338 331 323 325 326 326 326 324 322 319 315 310 307 307 306 306 306 305 304 303 302 301 299 296 294 292 290 289 287 286 284 282 281 279 277 275 274 273 272 271 269
339 335 326 325 329 329 328 327 323 320 317 313 310 307 308 309 308 307 307 306 304 302 300 297 295 295 293 291 289 287 285 283 283 282 278 276 275 275 275 273 272 271
335 329 326 329 333 330 329 326 321 317 314 311 311 310 311 312 310 310 310 307 303 300 298 296 295 294 293 292 290 286 284 283 284 283 279 276 275 274 274 273 271 271
328 327 330 334 334 331 328 322 317 314 313 312 314 314 315 314 312 312 310 304 301 299 297 296 295 294 294 292 290 287 286 284 283 283 280 277 276 275 274 272 270 270
325 330 335 336 334 330 323 317 314 314 315 317 318 318 318 317 315 313 308 302 299 298 298 298 297 295 294 292 289 288 287 285 283 282 280 278 276 274 272 270 267 267
328 335 339 338 332 325 318 316 316 317 320 322 323 322 321 320 319 313 304 301 301 299 299 300 298 295 294 292 290 289 287 285 282 279 276 273 271 268 266 265 263 261
335 340 341 337 329 322 319 319 319 322 325 327 327 327 325 323 320 313 306 307 308 306 302 299 298 295 292 291 291 290 288 285 280 276 272 269 268 265 261 259 259 257
342 344 342 334 326 322 321 322 324 327 331 331 331 331 328 324 319 315 313 312 310 307 304 301 299 295 293 293 294 294 293 291 287 284 280 276 273 271 266 261 257 254
348 346 341 330 325 324 323 325 329 332 333 334 334 333 329 324 320 317 315 311 307 306 306 303 299 296 296 297 298 297 296 295 293 290 288 283 277 274 273 270 264 258
352 344 337 329 327 326 326 330 333 335 337 338 336 332 327 324 321 316 311 308 307 306 305 303 299 297 299 301 301 300 298 296 294 291 290 287 282 278 275 271 270 267
352 342 333 328 327 328 330 334 336 338 341 340 335 330 326 323 320 313 308 307 308 306 303 301 300 299 302 303 303 302 301 299 297 292 290 288 285 284 279 274 272 269
350 340 330 327 330 333 334 337 339 342 343 340 334 329 326 323 318 313 311 310 310 308 304 303 303 303 304 305 306 305 304 302 299 296 294 291 289 287 283 278 273 266
347 335 328 328 333 336 336 339 343 344 343 340 334 328 324 320 317 314 312 311 311 311 307 305 307 307 306 307 309 308 308 306 304 302 298 293 290 289 286 283 278 270
341 328 327 330 334 338 340 343 344 343 342 340 333 326 322 319 316 314 312 311 312 311 307 305 307 308 306 308 312 312 312 310 305 300 296 292 291 291 290 289 287 283
327 320 329 332 336 341 344 344 343 341 341 339 331 324 320 317 315 313 313 312 310 310 308 305 307 309 309 310 314 314 313 311 303 297 296 295 295 295 293 290 286 283
312 317 328 333 341 347 346 344 342 341 340 337 330 322 317 316 315 312 312 312 310 310 309 304 304 308 309 311 315 316 316 314 308 303 301 299 298 297 294 289 285 282
297 322 331 342 350 350 346 344 343 342 339 335 329 322 317 316 316 312 310 312 311 310 310 305 304 308 310 313 317 320 319 317 312 306 302 301 299 295 290 286 283 282
129 352 348 359 358 350 346 347 346 343 339 335 329 324 320 317 316 312 310 313 315 315 314 312 310 312 315 320 323 322 321 320 315 308 302 299 296 289 282 279 277 278